Location: Branche des Alpilles
(43.6087°N, 4.6976°E)
Time: 08:29:24
(UTC+00:00)

Envisat - Pass Details

Date: 29 September 2021
Orbit: 764 x 766 km, 98.2° (Epoch: 25 October)

Event Time Altitude Azimuth Distance (km) Brightness Sun altitude
Rises 04:48:07 0° 14° (NNE) 3,241 6.5 -9.6°
Reaches altitude 10° 04:50:26 10° 16° (NNE) 2,310 5.8 -9.2°
Maximum altitude 04:55:32 77° 103° (ESE) 790 3.2 -8.2°
Drops below altitude 10° 05:00:35 10° 189° (S) 2,293 5.3 -7.3°
Sets 05:02:53 0° 191° (S) 3,214 6.1 -6.9°
